Find Himawari-7

NORAD ID: 28937 Int'l Des: 2006-004 Owner: JCAB/JMA Country: J operational
HEOCIRCULAR

リアルタイム位置

3D地球を読み込み中...

Himawari-7について

説明を読み込み中...

次回通過

Passes for default location (London). Set your location on the main map for personalized predictions.

高度履歴

Loading altitude history...

軌道要素

1 28937U 06004A 26119.73378028 -.00000277 00000-0 00000+0 0 9992
2 28937 5.6585 73.6218 0006599 177.5200 23.9846 0.99079918 73743
Epoch: Apr 29, 2026 • Age: 12 hours

現在のステータス

高度 36150.4 km
速度 3.06 km/s
衛星直下点 1.31°N, 151.12°E
打ち上げ日 Feb 18, 2006
運用期間 20.1 years
タイプ weather

技術仕様

分類 Payload
質量 4650.00 kg
乾燥質量 1700.00 kg
総質量 4650.00 kg
長さ 6.00 m
直径 4.00 m
スパン 30.00 m
形状 Box + Pan + Ant
製造者 MELCO
バスタイプ DS-2000
フェーズステータス In Orbit
所有者/国 JCAB/JMA/J

Most Searched